Current weather by "City, St" or "zip code"  
 
Advertise Here

Current Conditions: Wray Municipal Airport, CO

Partly Cloudy


97.0 F

Last Updated on May 31 2020, 3:55 pm MDT
Humidity: 17%
Wind Speed: S 13.8 G 18.4 mph
Barometer 29.94 in
Dewpoint: 44.6 F
Visibility: 10.00 mi
Precip: --
Heat Index: 93 F
Wind Chill: NA
Current conditions at:

Wray Municipal Airport, CO (K2V5)

Lat: 40.09929 Lon: 102.24308

Local Radar Image active severe weather and emergency alerts image image weather storm and storm spotter reports image weather observation monitoring service image
Local
Radar
Active
Alerts
Storm Reports Obs
Monitoring

Sign-up For Email & Text Message Weather Alert Notification Services


Advertise Here

Observation History for Wray Municipal Airport, CO


Time Wind
(mph)
Vis
(mi)
Weather Precip (in) Temperature (F) Relative
Humidity
Wind
Chill
(F)
Heat
Index
(F)
Pressure
Air Dwpt altimeter
(in)
sea level
(mb)
Rmks
3:55 pm MDT S 13.8 G 18.4 10.00 Partly Cloudy -- 97.0 44.6 17% NA 93 29.94 M
2:55 pm MDT SW 5.8 G 16.1 10.00 Fair -- 95.0 46.4 19% NA 91 29.96 M
1:55 pm MDT S 4.6 G 16.1 10.00 Partly Cloudy -- 93.0 48.2 21% NA 90 29.99 M
12:55 pm MDT SE 10.4 G 20.7 10.00 Fair -- 90.0 55.4 31% NA 88 30.01 M
11:55 am MDT SE 5.8 10.00 Fair -- 86.0 55.4 35% NA 85 30.03 M
10:55 am MDT SW 8.1 10.00 Fair -- 82.0 55.4 40% NA 81 30.05 M
9:55 am MDT SW 5.8 10.00 Fair -- 77.0 55.4 47% NA NA 30.06 M
8:55 am MDT S 8.1 10.00 Fair -- 73.0 55.4 53% NA NA 30.07 M
7:55 am MDT SW 4.6 10.00 Fair -- 63.0 55.4 77% 64 NA 30.08 M
6:55 am MDT W 3.5 10.00 Fair -- 59.0 53.6 82% NA NA 30.06 M
5:55 am MDT NW 5.8 10.00 Fair -- 54.0 53.6 100% 53 NA 30.05 M
4:55 am MDT W 8.1 10.00 Fair -- 54.0 53.6 100% 52 NA 30.06 M
3:55 am MDT NW 12.7 10.00 Fair -- 54.0 53.6 100% 50 NA 30.03 M
2:55 am MDT N 6.9 10.00 Fair -- 55.0 55.4 100% 53 NA 30.04 M
1:55 am MDT N 8.1 10.00 Fair -- 59.0 53.6 82% 58 NA 30.05 M
12:55 am MDT N 6.9 G 17.3 10.00 Fair -- 61.0 53.6 77% 60 NA 30.06 M
11:55 pm MDT NE 11.5 G 17.3 10.00 Fair -- 61.0 53.6 77% 59 NA 30.08 M
10:55 pm MDT NE 16.1 10.00 Fair -- 63.0 53.6 73% 61 NA 30.09 M
9:55 pm MDT NE 19.6 G 27.6 10.00 Fair -- 68.0 55.4 64% NA NA 30.09 M
8:55 pm MDT E 20.7 G 28.8 10.00 Fair and Breezy -- 72.0 55.4 57% NA NA 30.08 M
7:55 pm MDT E 17.3 G 21.9 10.00 Fair -- 73.0 55.4 53% NA NA 30.08 M
6:55 pm MDT E 18.4 10.00 Fair -- 77.0 53.6 44% NA NA 30.07 M
5:55 pm MDT E 15.0 10.00 Fair -- 79.0 53.6 42% NA NA 30.08 M
4:55 pm MDT E 9.2 10.00 Fair -- 81.0 51.8 37% NA 80 30.09 M

Regional Weather Observation


Holyoke Airport, CO (KHEQ)

Fair
95.0 F

Colorado Plains Regional Airport, CO (KAKO)

Fair
90.0 F

Imperial, Imperial Municipal Airport, NE (KIML)

Fair
93.0 F

Sterling Municipal Airport, CO (KSTK)

Fair
93.0 F

ST FRANCIS, KS (KSYF)

Partly Cloudy
95.0 F

Fort Morgan Municipal Airport, CO (KFMM)

Fair
93.0 F